{"data":{"norad_id":57967,"epoch":"2026-05-25T00:43:14.973024Z","epoch_age_seconds":69073,"freshness":"FRESH","line1":"1 57967U 23151D   26145.03003441  .00000588  00000+0  30896-4 0  9999","line2":"2 57967  43.0010 264.7065 0001088 277.5669  82.5059 15.27577107147444","mean_motion":15.27577107,"eccentricity":0.0001088,"inclination_deg":43.001,"raan_deg":264.7065,"arg_perigee_deg":277.5669,"mean_anomaly_deg":82.5059,"bstar":3.0896e-5,"rev_number":14744,"period_min":94.266927240616,"perigee_km":482.31126074633,"apogee_km":483.80425672583,"semimajor_km":6861.1947587361,"source":"CELESTRAK","updated_at":"2026-05-25T13:38:18.483911Z"}}